Regional Weather Roundup
Issued by NWS

Home | Current Version | Previous Version | Graphics & Text | Print | Product List | Glossary On
Versions: 1 2 3 4 5 6 7 8 9 10 11 12 13 14 15 16 17 18 19 20 21 22 23 24 25 26 27 28 29 30 31 32 33 34 35 36 37 38 39 40 41 42 43 44 45 46 47 48 49 50
000
ASUS43 KOAX 232302
RWRNE

WEATHER ROUNDUP FOR NEBRASKA
NATIONAL WEATHER SERVICE OMAHA NE
600 PM CDT FRI JUN 23 2017

NOTES: SATELLITE DATA IS BEING USED TO AUGMENT CLOUD COVER ABOVE
       12000 FEET.
       "FAIR" INDICATES FEW OR NO CLOUDS BELOW 12,000 FEET WITH NO
       SIGNIFICANT WEATHER AND/OR OBSTRUCTIONS TO VISIBILITY.

  * THESE STATIONS DO NOT REPORT WEATHER SUCH AS RAIN...SNOW OR FOG.

NEZ001>004-019>022-054>056-240000-
NEBRASKA PANHANDLE

CITY           SKY/WX    TMP DP  RH WIND       PRES   REMARKS
SCOTTSBLUFF    PTSUNNY   75  33  21 N13G20    30.17S
ALLIANCE       SUNNY     72  31  22 N14G22    30.16S
CHADRON        SUNNY     73  26  17 W21G30    30.14S
GORDON         FAIR      69  37  31 N10G16    30.16R
KIMBALL        MOSUNNY   70  40  33 NW8       30.22S
SIDNEY         SUNNY     73  37  27 NW10G17   30.19F
$$

NEZ057>060-069>072-079>082-240000-
SOUTHWEST NEBRASKA

CITY           SKY/WX    TMP DP  RH WIND       PRES   REMARKS
NORTH PLATTE   MOSUNNY   77  40  26 NW10G18   30.10F
IMPERIAL       SUNNY     76  34  21 W8        30.13F
LEXINGTON      MOSUNNY   76  43  31 N12G17    30.09S
MCCOOK         MOSUNNY   80  35  19 NW17G25   30.10S
OGALLALA       SUNNY     77  32  19 NW8G23    30.14S
$$

NEZ005>010-023>029-035>040-094-240000-
NORTH CENTRAL NEBRASKA

CITY           SKY/WX    TMP DP  RH WIND       PRES   REMARKS
VALENTINE      MOSUNNY   74  30  19 NW17G30   30.11S
AINSWORTH      MOSUNNY   71  38  30 NW20      30.11S
BROKEN BOW     MOSUNNY   73  42  32 N14G28    30.09F
O`NEILL        MOSUNNY   72  41  32 NW18G26   30.07S
ORD            MOSUNNY   73  41  31 NW16G26   30.07S
THEDFORD       MOSUNNY   72  40  31 N16       30.14S
$$

NEZ041-046>049-061>064-073>077-083>087-240000-
SOUTH CENTRAL NEBRASKA

CITY           SKY/WX    TMP DP  RH WIND       PRES   REMARKS
GRAND ISLAND   MOSUNNY   75  46  35 N14G25    30.07R
AURORA         CLOUDY    74  46  36 N13G23    30.06R
HASTINGS       MOSUNNY   77  45  32 N12G26    30.08R
HEBRON         SUNNY     79  47  32 N9        30.04S
HOLDREGE       MOSUNNY   75  42  30 NW9G18    30.08S
KEARNEY *      MOSUNNY   77  43  29 N15       30.08S
$$

NEZ011>018-030>034-042>045-240000-
NORTHEAST NEBRASKA

CITY           SKY/WX    TMP DP  RH WIND       PRES   REMARKS
NORFOLK        MOSUNNY   71  46  40 NW16      30.02F
ALBION         PTSUNNY   74  44  34 NW17G23   30.06S
BLAIR          CLOUDY    73  50  45 NW14G21   30.00S
FREMONT        CLOUDY    72  49  42 NW14      30.02R
TEKAMAH        MOSUNNY   75  47  36 NW21G29   29.98S
WAYNE          PTSUNNY   72  46  39 NW18G25   30.02S
$$

NEZ050>053-065>068-078-088>093-240000-
SOUTHEAST NEBRASKA

CITY           SKY/WX    TMP DP  RH WIND       PRES   REMARKS
LINCOLN        PTSUNNY   75  50  41 NW14      30.02S
OMAHA EPPLEY   PTSUNNY   75  50  41 NW14      29.98R
BEATRICE       MOSUNNY   77  51  40 NW14G22   30.02S
FALLS CITY     SUNNY     74  54  49 NW15      29.99R
NEBRASKA CITY  MOSUNNY   73  54  51 NW14G22   30.00F
PLATTSMOUTH    MOSUNNY   73  50  43 NW12G18   30.00R
$$

NEZ044-045-051>053-067-240000-
OMAHA AREA

CITY           SKY/WX    TMP DP  RH WIND       PRES   REMARKS
OMAHA EPPLEY   PTSUNNY   75  50  41 NW14      29.98R
BLAIR          CLOUDY    73  50  45 NW14G21   30.00S
FREMONT        CLOUDY    72  49  42 NW14      30.02R
MILLARD        PTSUNNY   76  52  43 NW10G17   30.00R
OFFUTT AFB     CLOUDY    74  50  42 NW16      29.98S
PLATTSMOUTH    MOSUNNY   73  50  43 NW12G18   30.00R
WAHOO          MOCLDY    74  45  35 N14G25    30.01R
$$



USA.gov is the U.S. government's official web portal to all federal, state and local government web resources and services.